Welcome to the New NWS' Forecast!
Most changes are behind the scenes, but click here for differences you might notice.

Regional Weather Roundup (RWR)

Issued by National Weather Service (NWS)

                            
911 
ASUS46 KSEW 181210
RWRWA 

WASHINGTON REGIONAL WEATHER ROUNDUP
NATIONAL WEATHER SERVICE SEATTLE WA
500 AM PDT WED JUL 18 2018

NOTE:"FAIR" INDICATES FEW OR NO CLOUDS BELOW 12,000 FEET WITH NO 
SIGNIFICANT WEATHER AND/OR OBSTRUCTIONS TO VISIBILITY.

WAZ507-509-555>559-181300-
SEATTLE, TACOMA, EVERETT, AND VICINITY
  
CITY           SKY/WX    TMP DP  RH WIND       PRES   REMARKS
EVERETT        CLOUDY    61  55  81 S9        30.13R                  
6HR MIN TEMP:  58; 6HR MAX TEMP:  61;                                

BOEING FIELD   CLOUDY    60  55  83 SW7       30.13R                  
6HR MIN TEMP:  60; 6HR MAX TEMP:  63;                                

RENTON         CLOUDY    64  55  72 S5        30.13R                  
6HR MIN TEMP:  63; 6HR MAX TEMP:  65;                                

SEATAC AIRPORT CLOUDY    60  55  83 SW6       30.14R                  
6HR MIN TEMP:  60; 6HR MAX TEMP:  62;                                

JBLM-MCCHORD   CLOUDY    61  59  95 SW9       30.14R                  
6HR MIN TEMP:  61; 6HR MAX TEMP:  62;                                

PUYALLUP       CLOUDY    61  57  88 CALM      30.14S                  
BREMERTON      CLOUDY    57  55  93 S7        30.13R                  
6HR MIN TEMP:  57; 6HR MAX TEMP:  60;                                

JBLM-FT LEWIS  CLOUDY    60  58  92 SW7       30.13R                  
6HR MIN TEMP:  60; 6HR MAX TEMP:  62;                                

TACOMA NARROWS CLOUDY    58  56  93 SW3       30.14R                  
6HR MIN TEMP:  58; 6HR MAX TEMP:  61;                                

$$
 
WAZ001-503-506-510-514-515-181300-
NORTH INTERIOR
  
CITY           SKY/WX    TMP DP  RH WIND       PRES   REMARKS
BELLINGHAM     MOCLDY    59  55  87 S15       30.08R                  
6HR MIN TEMP:  59; 6HR MAX TEMP:  67;                                

FRIDAY HARBOR  CLOUDY    57  53  86 S9        30.12R                  
6HR MIN TEMP:  54; 6HR MAX TEMP:  62;                                

EASTSOUND        N/A     59  55  88 S17G23    30.08R                  
PORT ANGELES   CLOUDY    55  54  96 W3        30.13R FOG              
6HR MIN TEMP:  55; 6HR MAX TEMP:  57;                                

EDIZ HOOK      CLOUDY    55  52  92 W7        30.13R                  
6HR MIN TEMP:  54; 6HR MAX TEMP:  57;                                

PORT TOWNSEND  CLOUDY    57  55  94 E3        30.12R                  
NAS WHIDBEY    CLOUDY    58  53  84 W6        30.16R                  
6HR MIN TEMP:  58; 6HR MAX TEMP:  60;                                

ARLINGTON      CLOUDY    59  55  87 CALM      30.13R                  
6HR MIN TEMP:  55; 6HR MAX TEMP:  60;                                

BURLINGTON     CLOUDY    57  55  94 CALM      30.12R                  
$$
 
WAZ020-022-039-040-504-511-512-181300-
SOUTHWEST INTERIOR
  
CITY           SKY/WX    TMP DP  RH WIND       PRES   REMARKS
SHELTON        CLOUDY    58  54  86 SW10      30.11R                  
6HR MIN TEMP:  58; 6HR MAX TEMP:  61;                                

OLYMPIA        CLOUDY    59  55  87 SW8       30.14R                  
6HR MIN TEMP:  59; 6HR MAX TEMP:  60;                                

CHEHALIS       CLOUDY    61  59  94 CALM      30.15R                  
KELSO          CLOUDY    60  58  92 CALM      30.17R                  
6HR MIN TEMP:  60; 6HR MAX TEMP:  63; 6HR PCP: TRACE;                

VANCOUVER      MOCLDY    60  57  89 CALM      30.16R                  
6HR MIN TEMP:  59; 6HR MAX TEMP:  64;                                

SCAPPOOSE, OR  CLOUDY    62  55  77 NW5       30.16R                  
6HR MIN TEMP:  61; 6HR MAX TEMP:  65;                                

PORTLAND, OR   MOCLDY    63  55  75 NW6       30.17R                  
6HR MIN TEMP:  62; 6HR MAX TEMP:  64;                                

$$
 
WAZ021-516-517-181300-
WASHINGTON COAST
  
CITY           SKY/WX    TMP DP  RH WIND       PRES   REMARKS
FORKS          CLOUDY    54  54 100 CALM      30.14S FOG              
6HR MIN TEMP:  54; 6HR MAX TEMP:  56;                                

HOQUIAM        CLOUDY    57  56  96 W7        30.16R FOG              
6HR MIN TEMP:  57; 6HR MAX TEMP:  61;                                

ASTORIA, OR    CLOUDY    59  59 100 W6        30.18R FOG              
6HR MIN TEMP:  58; 6HR MAX TEMP:  59; 6HR PCP:  0.02;                

$$
 
WAZ019-023-024-040-567>569-181300-
CASCADE MOUNTAINS AND COLUMBIA GORGE
  
CITY           SKY/WX    TMP DP  RH WIND       PRES   REMARKS
STAMPEDE PASS  FOG       50  50 100 VRB7      30.15S VSB 1/4          
6HR MIN TEMP:  50; 6HR MAX TEMP:  59;                                

TROUTDALE, OR  CLOUDY    65  56  72 N3        30.16R                  
6HR MIN TEMP:  63; 6HR MAX TEMP:  66;                                

HOOD RIVER, OR SUNNY     63  54  72 SW6G18    30.06R                  
THE DALLES, OR CLEAR     67  54  63 NW23G29   30.01R                  
6HR MIN TEMP:  67; 6HR MAX TEMP:  82;                                

$$

WAZ026-027-041>044-520-521-181300-
EAST SLOPES
  
CITY           SKY/WX    TMP DP  RH WIND       PRES   REMARKS
OMAK           CLEAR     73  47  39 N9        29.90R                  
6HR MIN TEMP:  73; 6HR MAX TEMP:  82;                                

WENATCHEE      CLEAR     72  46  39 NW9       29.94R                  
6HR MIN TEMP:  71; 6HR MAX TEMP:  81;                                

ELLENSBURG     CLEAR     68  48  48 NW23G32   29.99S                  
6HR MIN TEMP:  67; 6HR MAX TEMP:  75;                                

YAKIMA         CLEAR     59  49  69 SW8       29.97R                  
6HR MIN TEMP:  58; 6HR MAX TEMP:  80;                                

SUNNYSIDE ARPT SUNNY     55  51  85 CALM      29.96R                  
6HR MIN TEMP:  54; 6HR MAX TEMP:  70;                                

YAKIMA TC        N/A     64  44  49 S5        29.96S                  
6HR MIN TEMP:  64; 6HR MAX TEMP:  77;                                

$$

WAZ028-034-035-181300-
COLUMBIA BASIN
  
CITY           SKY/WX    TMP DP  RH WIND       PRES   REMARKS
EPHRATA        CLEAR     73  43  33 NW9       29.91R                  
6HR MIN TEMP:  73; 6HR MAX TEMP:  85;                                

MOSES LAKE     CLEAR     66  46  48 W3        29.91S                  
6HR MIN TEMP:  65; 6HR MAX TEMP:  80;                                

PASCO          CLEAR     71  50  47 SW10      29.94R                  
6HR MIN TEMP:  70; 6HR MAX TEMP:  84;                                

RICHLAND ARPT  SUNNY     71  48  43 CALM      29.93R                  
6HR MIN TEMP:  71; 6HR MAX TEMP:  82;                                

HERMISTON, OR  CLEAR     73  46  38 SW10      29.97R                  
6HR MIN TEMP:  72; 6HR MAX TEMP:  83;                                

$$

WAZ036>038-181300-
NORTHEAST WASHINGTON
  
CITY           SKY/WX    TMP DP  RH WIND       PRES   REMARKS
SPOKANE GEIGER PTCLDY    67  44  43 S12       29.97R                  
6HR MIN TEMP:  67; 6HR MAX TEMP:  80;                                

SPOKANE FELTS  CLEAR     70  43  37 CALM      29.97R                  
6HR MIN TEMP:  68; 6HR MAX TEMP:  80;                                

FAIRCHILD AFB  CLEAR     64  44  47 S12       29.97R                  
6HR MIN TEMP:  64; 6HR MAX TEMP:  74;                                

COEURDALENE,ID CLEAR     63  46  54 SW5       30.00R                  
6HR MIN TEMP:  63; 6HR MAX TEMP:  72;                                

DEER PARK      CLEAR     62  43  49 S8        29.97R                  
6HR MIN TEMP:  52; 6HR MAX TEMP:  66;                                

$$

WAZ029>033-181300-
SOUTHEAST WASHINGTON
  
CITY           SKY/WX    TMP DP  RH WIND       PRES   REMARKS
PULLMAN        CLEAR     70  41  34 W17G29    30.03R                  
6HR MIN TEMP:  61; 6HR MAX TEMP:  74;                                

LEWISTON, ID   CLEAR     68  45  43 SE3       29.97R                  
6HR MIN TEMP:  67; 6HR MAX TEMP:  82;                                

WALLA WALLA    CLEAR     73  42  32 S9        30.01R                  
6HR MIN TEMP:  73; 6HR MAX TEMP:  83;                                

PENDLETON, OR  CLEAR     71  37  28 SW10      30.01S                  
6HR MIN TEMP:  71; 6HR MAX TEMP:  80;                                

$$